STARLINK-30323, 57634

Orbit data source: Space-Track

STARLINK-30323, 57634 is a payload satellite owned by SpaceX/Seattle (US) in LEO that was launched on Thu, 17 Aug 2023 UTC via an FALCON 9 launch vehicle from the Air Force Eastern Test Range (AFETR). Payload-class satellites include a variety of spacecraft equipped with specific instruments for various scientific and technological missions. These include communications satellites like Starlink; space stations such as the ISS; scientific satellites like the Hubble; Earth observation satellites from companies like Planet Labs, Umbra, and HawkEye 360; GPS; miniature CubeSats for education and research; and military/defense satellites.

Loading next visibility...
Identifier
57634, 2023-122C
Orbit
LEO
Country
Flag of USUS
Related business
Manufacturer
SpaceX/Seattle
Mission
Operational Commercial Communications
Bus & Motor
STARLINK V2M, Unknown motor
Mass
730 kg wet, ~700 kg dry
Launch date (UTC)
2023-08-17 (2 years ago)
Launch vehicle
FALCON 9
Launch site
Air Force Eastern Test Range (AFETR)
Object type
Payload
Rocket body
Debris
Shape & HBR
Box + 2 Pan, 14.5 m
Radar Cross Section
33.884 m², Large (>1 m²)

Expand to show TLE details & history
Last TLE update: 16 hours ago

TLE from 16 hours ago
0 STARLINK-30323
1 57634U 23122C   25243.13188169  .00000492  00000-0  51490-4 0  9996
2 57634  43.0028  36.7721 0001065 267.8010  92.2711 15.02535332113675
Epoch: 2025-08-31T03:09Z
TLE epoch observation values (Epoch: 2025-08-31T03:09:54.578Z)
Latitude
0.00004°
Longitude
9.73852°
Altitude
558.889 km
Speed
7.584 km/s
True Right ascension
02h 27m 05s
True Declination
0° 00' 00"
Sunlit
Object was in full shadow at epoch
Visualization orbit readout
Latitude
Unknown
Longitude
Unknown
Altitude
Unknown
Speed
Unknown
Apparent Right ascension
Unknown
Apparent Declination
Unknown
Sunlit
N/A
Visualization observer readout
Local Sidereal Time
10:25:24
Azimuth
Unknown
Elevation
Unknown
Doppler factor
Unknown
Orbital elements
Apogee altitude
561.744 km
Perigee altitude
560.266 km
Semi-major axis
6,939.142 km
Eccentricity
0.00011
Inclination
43.0028°
RAAN
36.7721°
Arg. of periapsis
267.801°
True anomaly
92.28329°
Mean anomaly
92.2711°
Eccentric anomaly
92.2772°
Mean motion
3.75478 °/min
Orbital period
95.88 mins
BSTAR
0.00005149
Loading maneuver chart data...
Computing Atmospheric mass density...
Loading historical data...
Loading historical data...
Loading historical data...
Loading historical data...
Loading historical data...
Loading historical data...
Loading historical data...

Documentation

Showing up to 5 results
|